13.05.2024;22:00;#
13.05.2024;21:00;#
13.05.2024;20:00;#
13.05.2024;19:00;#
13.05.2024;18:00;12
13.05.2024;17:00;12
13.05.2024;16:00;11
13.05.2024;15:00;11
13.05.2024;14:00;10
13.05.2024;13:00;10
13.05.2024;12:00;10
13.05.2024;11:00;10
13.05.2024;10:00;10
13.05.2024;09:00;10
13.05.2024;08:00;10
13.05.2024;07:00;9
13.05.2024;06:00;8
13.05.2024;05:00;8
13.05.2024;04:00;7
13.05.2024;03:00;7
13.05.2024;02:00;7
13.05.2024;01:00;7
13.05.2024;00:00;6
12.05.2024;23:00;6
12.05.2024;22:00;6
12.05.2024;21:00;6
12.05.2024;20:00;5
12.05.2024;19:00;5
12.05.2024;18:00;5
12.05.2024;17:00;5
12.05.2024;16:00;5
12.05.2024;15:00;5
12.05.2024;14:00;5
12.05.2024;13:00;5
12.05.2024;12:00;5
12.05.2024;11:00;5
12.05.2024;10:00;5
12.05.2024;09:00;5
12.05.2024;08:00;5
12.05.2024;07:00;6
12.05.2024;06:00;7
12.05.2024;05:00;8
12.05.2024;04:00;8
12.05.2024;03:00;9
12.05.2024;02:00;10
12.05.2024;01:00;11
12.05.2024;00:00;11
11.05.2024;23:00;12
